User: anonymous   Login
Location: Unspecified
(0.0000°N, 0.0000°E)
Time: 04:11:16
(UTC+00:00)
Language:

CHIPSAT - Orbit

View from above orbital plane
View from above orbital plane
View from above satellite
View from above satellite

Ground track
Ground track

The orbit data is extracted from the following two-line orbital elements,

1 27643U 03002B   18292.73863703  .00000835  00000-0  55143-4 0  9994
2 27643  94.0427 287.3429 0018578  52.4384 307.8536 15.08027527863220
Epoch (UTC): 19 October 2018 17:43:38
Eccentricity: 0.0018578
inclination: 94.0427°
perigee height: 529 km
apogee height: 555 km
right ascension of ascending node: 287.3429°
argument of perigee: 52.4384°
revolutions per day: 15.08027527
mean anomaly at epoch: 307.8536°
orbit number at epoch: 86322

The dashed part of the orbit path shows where the satellite is in the earth's shadow,  

DLR